Regional Weather Roundup
Issued by NWS

Home | Current Version | Previous Version | Text Only | Print | Product List | Glossary Off
Versions: 1 2 3 4 5 6 7 8 9 10 11 12 13 14 15 16 17 18 19 20 21 22 23 24 25 26 27 28 29 30 31 32 33 34 35 36 37 38 39 40 41 42 43 44 45 46 47 48 49 50

000
ASUS43 KFSD 180810
RWRSD

WEATHER ROUNDUP FOR SOUTH DAKOTA
NATIONAL WEATHER SERVICE SIOUX FALLS SD
300 AM CDT FRI APR 18 2014

NOTE: "FAIR" INDICATES FEW OR NO CLOUDS BELOW 12,000 FEET WITH NO
SIGNIFICANT WEATHER AND/OR OBSTRUCTIONS TO VISIBILITY.


SDZ001>005-009-010-012>017-180900-
NORTHWEST AND NORTH CENTRAL SOUTH DAKOTA

CITY           SKY/WX    TMP DP  RH WIND       PRES   REMARKS
BUFFALO          N/A     36  27  69 SE13      29.83F
FAITH            N/A     34  25  69 SE20      29.94F WCI  23
MOBRIDGE       CLOUDY    36  24  62 SE15      30.05F
$$

SDZ012>016-024>037-041>051-057-063-072>074-180900-
SOUTHWEST AND SOUTH CENTRAL SOUTH DAKOTA

CITY           SKY/WX    TMP DP  RH WIND       PRES   REMARKS
RAPID CTY ARPT PTCLDY    36  32  85 SE8       29.89F
PIERRE         CLOUDY    38  26  62 SE16      30.04F
CUSTER         MOCLDY    35  32  88 NW3       29.90F
ELLSWORTH AFB  PTCLDY    38  33  83 S9        29.88F
PHILIP         CLEAR     32  26  78 E8        29.96F WCI  25
PINE RIDGE     CLEAR     47  37  68 S26G37    29.89F
SPEARFISH      FAIR      41  32  70 SW3       29.86F
WINNER         FAIR      44  26  49 S21G29    30.04F
$$

SDZ004>011-016>023-039-040-180900-
NORTHEAST SOUTH DAKOTA

CITY           SKY/WX    TMP DP  RH WIND       PRES   REMARKS
ABERDEEN       CLOUDY    33  21  61 SE8       30.20F WCI  26
WATERTOWN      CLOUDY    33  17  51 E7        30.22S WCI  27
SISSETON         N/A     32  24  72 S8        30.25F WCI  25
$$

SDZ017-020-022-023-036>040-048>070-180900-
SOUTHEAST SOUTH DAKOTA

CITY           SKY/WX    TMP DP  RH WIND       PRES   REMARKS
SIOUX FALLS    CLOUDY    33  27  78 E9        30.24F WCI  25
HURON          MOCLDY    33  24  69 SE13      30.19S WCI  24
CHAMBERLAIN      N/A     38  25  59 SE14      30.11F
MITCHELL         N/A     36  27  69 MISG      30.20F
YANKTON        PTCLDY    34  25  69 E8        30.22F WCI  27
$$

ABBREVIATIONS USED IN REMARKS
   TC - TEMPERATURE IN CELSIUS
  WCI - WIND CHILL INDEX
   HX - HEAT INDEX
  VSB - VISIBILITY




USA.gov is the U.S. government's official web portal to all federal, state and local government web resources and services.